Simultaneous Nadir Overpasses (SNOs) Predictions

Prediction of SNOs between METOP-B and TERRA Satellite Orbit:

Table of predicted SNOs for the next 14.0 days since TLE Epoch: 5/30/2015
Index Date (METOP-B) Time (METOP-B) Lat,Lon (METOP-B) SZA (METOP-B ) Date (TERRA) Time (TERRA) Lat,Lon (TERRA) SZA (TERRA ) Distance(km) Time Diff (sec)
1 06/01/2015 05:39:11 81.31, 142.58 62.30 06/01/2015 05:39:47 81.31, 142.53 62.32 0.93 36
2 06/01/2015 06:29:51 -81.31, -49.83 117.67 06/01/2015 06:29:14 -81.30, -49.94 117.71 2.04 37
3 06/04/2015 01:13:31 81.30,-151.07 61.92 06/04/2015 01:14:09 81.30,-151.22 61.92 2.49 38
4 06/04/2015 02:04:10 -81.31, 16.91 118.01 06/04/2015 02:03:35 -81.32, 16.73 118.04 3.02 35
5 06/06/2015 20:47:51 81.30, -84.77 61.58 06/06/2015 20:48:33 81.30, -84.83 61.59 1.13 42
6 06/
